Home   Weather   Weipa   Past weeks
Flag for Australia

Past Weather in Weipa, Queensland, Australia — Yesterday and Last 2 Weeks

Now
86 °F

Mostly cloudy.


Feels Like: 87 °F
Forecast: 87 / 67 °F
Wind: 13 mph from Southeast

Location: Weipa City

Current Time: Jun 18, 2019 at 5:02:44 pm

Latest Report: Jun 18, 2019 at 4:00 pm


Visibility: N/A

Pressure: 29.86 "Hg

Humidity: 46%

Dew Point: 63 °F

Location of WeipaLocation

Past Weather in Weipa — Graph

°F

Weipa Temperature Yesterday

Maximum temperature yesterday: 84 °F (at 1:00 pm)
Minimum temperature yesterday: 68 °F (at 1:00 am)
Average temperature yesterday: 75 °F

High & Low Weather Summary for the Past Weeks

 TemperatureHumidityPressure
High90 °F (Jun 12, 2:00 pm)94% (Jun 13, 3:00 am)30.04 "Hg (Jun 13, 3:00 am)
Low66 °F (Jun 16, 6:00 am)40% (Jun 16, 1:00 pm)29.80 "Hg (Jun 3, 3:00 pm)
Average77 °F70%29.92 "Hg
* Reported Jun 3 3:00 pm — Jun 18 3:00 pm, Weipa. Weather by CustomWeather, © 2019

Note: Actual official high and low records may vary slightly from our data, if they occured in-between our weather recording intervals... More about our weather records

Advertising

Weipa Weather History for the Previous 24 Hours

Scroll right to see more
 ConditionsComfort  
Time TempWeatherWind HumidityBarometerVisibility
3:00 pm
Tue, Jun 18
86 °FPartly sunny.13 mph46%29.86 "HgN/A
2:00 pm86 °FBroken clouds.12 mph49%29.89 "HgN/A
1:00 pm82 °FPartly sunny.9 mph55%29.89 "HgN/A
12:00 pm82 °FScattered clouds.9 mph55%29.92 "HgN/A
11:00 am82 °FScattered clouds.8 mph62%29.95 "HgN/A
10:00 am79 °FScattered clouds.12 mph70%29.95 "HgN/A
9:00 am77 °FSunny.9 mph74%29.95 "HgN/A
8:00 am72 °FSunny.5 mph88%29.95 "HgN/A
7:00 am70 °FClear.3 mph88%29.92 "HgN/A
6:00 am70 °FOvercast.6 mph88%29.92 "HgN/A
5:00 am72 °FMostly cloudy.1 mph88%29.92 "HgN/A
4:00 am72 °FMostly cloudy.3 mph88%29.92 "HgN/A
3:00 am72 °FOvercast.No wind88%29.92 "HgN/A
2:00 am72 °FPassing clouds.1 mph88%29.92 "HgN/A
1:00 am73 °FMostly cloudy.5 mph83%29.95 "HgN/A
12:00 am73 °FMostly cloudy.6 mph83%29.95 "HgN/A
11:00 pm
Mon, Jun 17
75 °FOvercast.8 mph78%29.95 "HgN/A
10:00 pm75 °FMostly cloudy.9 mph78%29.98 "HgN/A
9:00 pm75 °FOvercast.8 mph78%29.95 "HgN/A
8:00 pm75 °FMostly cloudy.6 mph78%29.95 "HgN/A
7:00 pm77 °FCloudy.7 mph74%29.92 "HgN/A
6:00 pm77 °FMostly cloudy.5 mph74%29.89 "HgN/A
5:00 pm79 °FBroken clouds.13 mph65%29.89 "HgN/A
Weather by CustomWeather, © 2019

See weather overview